Location: Bucaritos
(10.0779°N, 67.0369°W)
Time: 05:04:36
(UTC+00:00)

Cosmos 1241 Rocket - Pass Details

Date: 27 June 2022
Orbit: 934 x 1013 km, 65.8° (Epoch: 18 August)

Event Time Altitude Azimuth Distance (km) Brightness Sun altitude
Rises 23:06:52 0° 196° (SSW) 3,592 7.4 -4.0°
Reaches altitude 10° 23:09:25 10° 194° (SSW) 2,642 6.7 -4.6°
Maximum altitude 23:15:32 72° 110° (ESE) 976 4.4 -6.0°
Drops below altitude 10° 23:21:39 10° 27° (NNE) 2,638 6.8 -7.3°
Sets 23:24:11 0° 25° (NNE) 3,587 7.5 -7.9°
